Wind_Speed
29 28 28 27 26 26 26 26 25 26 26 25 24 22 25 26 25 25 25 26 25 25 25 24 25 24 24 24 24 24 25 25 25 26 27 27 27 28 29 29 30 31 31 32
30 29 28 28 28 27 27 27 26 27 27 27 25 23 25 27 27 26 26 26 26 26 26 25 25 25 25 25 25 25 25 26 27 27 28 28 28 29 29 30 31 32 33 34
31 30 29 29 29 29 28 28 27 27 28 28 26 23 25 27 27 27 27 27 27 27 26 26 26 26 26 26 26 26 26 27 28 28 29 29 30 30 31 32 33 34 35 35
32 30 30 30 30 30 29 29 29 29 29 28 28 25 23 26 27 28 28 27 27 27 27 26 26 27 27 27 27 27 28 28 29 29 30 31 31 32 33 34 35 35 36 37
32 31 30 30 30 30 30 30 30 30 30 29 29 29 24 26 27 28 29 28 28 28 27 27 27 28 28 28 28 28 29 29 30 30 31 32 33 33 34 35 36 37 38 39
33 31 31 30 30 30 30 31 31 31 31 30 28 29 27 26 27 28 29 29 29 28 28 28 28 28 28 29 29 29 30 30 31 31 32 33 34 35 36 37 38 38 39 40
34 32 31 30 30 30 30 31 32 32 31 31 29 29 27 26 27 27 28 29 28 28 28 28 28 29 30 30 30 30 31 32 32 33 34 35 36 36 37 38 39 40 41 42
34 33 32 31 30 30 30 31 32 33 33 31 29 28 26 26 26 27 28 28 28 28 28 28 29 29 30 30 31 32 32 33 33 34 35 36 37 38 39 40 41 42 43 44
34 34 33 32 31 31 31 31 31 33 34 33 31 28 25 25 27 28 29 29 29 28 29 29 29 30 31 31 32 33 33 34 34 35 36 37 38 39 40 41 42 43 44 45
34 34 33 32 32 32 32 31 31 33 35 35 33 29 26 25 27 29 30 30 30 29 29 30 30 31 32 32 33 33 34 35 36 37 37 38 39 40 41 43 44 44 45 46
35 35 34 33 32 32 32 32 32 34 35 35 35 31 27 26 28 29 30 31 31 31 30 31 32 32 33 33 34 34 35 35 36 37 38 39 41 42 43 44 45 46 47 48
34 35 35 34 33 32 33 32 33 34 35 36 36 33 29 29 30 31 32 32 32 32 32 33 33 33 33 34 34 35 36 37 38 39 40 41 43 44 44 45 46 48 49 50
35 36 35 34 33 33 33 33 34 35 36 36 36 34 31 31 32 33 34 34 33 33 33 34 34 33 34 35 35 36 37 38 39 40 42 43 44 44 46 47 48 49 50 52
34 35 35 34 34 33 33 34 34 35 36 37 36 34 32 33 35 35 35 35 34 33 34 34 34 34 35 36 36 37 38 39 40 41 42 43 44 45 46 47 49 50 52 54
34 34 34 34 35 35 35 34 34 35 36 38 37 36 33 34 35 35 35 35 34 34 34 35 35 35 36 36 37 38 39 40 41 42 43 44 45 46 47 49 50 52 54 55
35 34 34 35 35 36 36 35 34 35 36 38 38 36 34 36 36 35 35 35 35 35 36 36 36 37 37 37 38 39 40 41 42 43 44 44 46 47 49 51 52 54 56 58
36 35 36 36 36 37 37 33 34 35 36 37 38 36 36 36 36 36 36 36 36 36 36 36 36 37 37 38 39 40 40 41 42 43 44 46 47 49 51 52 54 56 58 60
37 37 38 38 37 39 34 33 33 35 34 35 37 37 37 37 37 37 37 37 36 36 36 36 36 37 38 38 39 40 40 42 43 44 45 47 49 50 52 54 56 58 60 62
37 37 38 37 38 37 35 33 33 35 34 34 36 36 37 37 37 36 36 36 36 36 36 37 37 37 38 39 40 40 41 42 44 45 47 48 50 52 54 56 58 60 62 63
37 37 38 38 39 39 35 34 34 36 35 33 35 35 36 36 36 35 36 36 37 37 37 37 38 39 39 40 41 42 43 44 45 47 48 50 52 54 56 58 60 61 63 64
37 37 38 38 39 38 35 35 34 36 35 34 35 34 35 35 35 35 35 36 36 36 37 37 38 39 40 41 42 43 44 45 47 48 49 51 53 55 57 59 61 63 64 65
39 39 38 38 39 36 34 35 35 36 36 36 35 35 35 35 34 34 35 35 36 37 37 38 39 40 41 42 43 44 45 46 48 49 51 53 55 57 58 60 62 63 65 66
39 38 38 38 37 35 35 36 37 37 37 37 37 36 36 35 35 35 35 36 37 37 38 39 40 41 42 43 44 45 46 48 49 51 53 54 56 57 59 61 63 65 67 68
38 37 37 37 35 36 37 38 38 38 38 38 38 37 37 36 36 36 37 37 38 39 39 41 42 43 44 44 45 47 48 49 51 52 54 55 57 59 61 63 64 66 69 71
38 37 37 37 36 37 38 38 38 39 39 38 38 37 37 37 37 38 39 39 40 40 41 42 43 44 45 46 47 48 49 51 52 54 56 57 59 61 63 65 67 69 71 73
37 37 38 38 37 38 37 38 39 39 38 39 39 38 38 39 39 40 41 41 41 42 43 44 45 45 46 47 48 50 51 53 54 56 57 59 61 63 65 67 69 70 73 74
Wind_Direction
245 246 247 249 252 253 255 257 260 264 267 267 267 268 272 276 277 278 279 279 279 281 282 283 284 285 285 286 287 289 291 292 294 295 296 296 296 296 296 296 296 296 297 297
243 245 247 248 250 253 255 258 261 265 268 268 267 268 271 275 278 279 279 280 280 281 282 282 283 284 284 285 286 288 290 291 293 294 294 294 295 296 297 297 297 297 298 298
243 243 246 249 252 255 257 260 262 265 268 270 269 267 271 274 277 279 280 280 280 280 281 281 281 282 283 284 284 286 288 290 292 292 293 293 294 295 296 297 297 298 298 298
243 244 246 249 252 255 258 261 264 266 268 270 272 270 267 274 277 279 280 280 280 280 280 280 280 281 282 283 284 286 288 289 291 292 292 293 294 295 296 297 297 298 298 298
243 245 247 250 253 256 259 261 264 267 269 271 273 276 274 274 276 278 278 279 279 279 279 279 280 281 281 282 284 285 287 289 290 291 291 293 294 295 296 297 297 298 298 298
244 245 247 250 253 256 259 262 265 267 270 272 274 277 279 277 277 278 278 278 278 278 279 280 280 280 281 282 283 285 286 288 289 290 291 292 294 295 296 296 297 298 298 298
245 246 248 250 253 256 259 263 267 269 270 273 275 277 280 280 279 280 280 279 279 279 280 280 280 281 281 282 283 284 286 287 288 290 291 292 293 294 295 296 297 298 298 298
244 246 248 250 253 256 259 263 268 271 273 274 275 277 280 281 282 281 280 279 280 280 280 280 280 281 281 282 282 283 285 286 288 289 290 292 293 295 295 296 297 298 298 298
244 246 247 250 252 255 259 262 266 270 272 274 275 277 279 282 283 282 282 281 281 281 281 281 281 281 282 282 282 283 284 286 288 289 290 292 293 294 295 296 297 298 298 298
244 246 247 249 252 254 258 261 264 267 272 275 276 279 283 284 283 283 283 282 282 282 282 282 282 283 283 283 283 284 285 286 288 289 290 292 293 294 295 296 297 298 298 299
243 246 247 249 251 254 257 260 263 266 270 275 279 281 285 286 284 284 283 282 282 283 283 284 284 284 284 284 284 285 286 287 288 289 291 292 293 294 295 296 297 298 298 299
243 246 249 250 252 254 257 260 262 265 270 273 278 282 285 286 285 284 284 283 283 284 284 283 283 284 284 284 284 285 286 287 288 290 291 292 293 294 295 296 297 298 298 299
241 245 249 250 251 253 256 258 262 266 269 273 277 283 286 286 285 284 283 283 285 285 284 284 284 284 284 284 284 285 286 287 288 290 292 293 293 294 295 296 297 298 299 300
241 245 248 252 254 256 258 260 263 266 269 273 277 281 283 285 284 283 284 285 286 286 285 285 285 284 284 285 285 286 287 288 289 291 292 293 293 294 295 296 297 298 299 300
244 247 248 251 254 257 258 260 262 265 269 273 277 279 282 282 282 282 284 285 285 285 285 285 286 285 286 286 286 287 288 289 291 292 293 293 294 295 296 297 297 299 300 301
246 248 249 251 254 257 259 261 263 266 270 274 277 280 282 281 282 282 283 284 284 285 285 285 285 285 286 287 287 288 289 290 291 292 293 294 295 296 296 297 298 299 300 301
247 249 250 252 254 258 260 263 265 267 271 274 277 280 281 281 282 282 283 284 285 285 285 286 287 287 287 288 289 289 290 291 292 293 294 295 295 296 297 298 299 300 301 302
246 248 251 255 257 260 264 263 265 268 271 274 277 279 281 282 282 282 283 284 285 285 286 286 287 287 288 288 289 290 291 292 293 294 295 295 296 297 298 299 300 301 302 303
246 249 252 256 260 263 264 266 269 271 273 276 279 280 281 282 282 282 283 283 284 285 285 286 287 288 288 289 291 292 292 293 294 295 296 297 297 298 299 300 301 302 303 304
246 250 254 258 261 265 266 267 271 274 275 277 279 280 281 282 282 283 283 284 284 285 286 287 287 288 289 291 291 292 293 294 295 296 297 298 299 299 300 301 302 303 303 304
247 252 256 260 262 265 269 271 273 275 279 279 280 282 282 282 283 284 284 284 284 285 286 287 288 289 291 292 293 293 295 296 297 297 298 299 300 301 301 302 303 303 304 305
249 252 256 259 262 268 271 272 273 275 277 280 282 284 285 284 284 284 284 285 285 286 287 288 289 291 292 293 294 295 296 297 298 299 299 300 301 301 302 303 304 305 305 305
250 253 256 259 264 269 270 272 273 275 277 279 281 283 285 285 285 285 285 286 286 288 289 291 292 293 294 295 296 297 298 299 299 300 301 301 302 303 303 304 305 305 306 306
249 251 255 260 263 268 270 272 273 275 278 279 281 283 284 285 285 285 286 287 288 290 291 293 294 295 296 296 297 298 299 300 301 301 302 302 303 304 305 305 306 306 307 307
250 253 258 262 265 266 268 270 273 275 277 278 280 282 283 284 284 286 287 288 289 291 293 294 295 296 296 297 298 299 300 301 302 303 303 304 304 305 306 306 307 307 307 308
252 256 260 262 263 265 267 270 273 274 276 277 279 281 282 284 285 286 287 288 290 291 293 294 295 296 297 298 299 300 301 302 303 304 304 305 305 306 306 307 307 308 308 309
Height
5830 5833 5835 5836 5838 5839 5839 5840 5840 5840 5840 5840 5841 5841 5839 5837 5837 5836 5834 5833 5833 5832 5830 5829 5827 5826 5824 5823 5821 5820 5818 5816 5814 5812 5810 5808 5806 5803 5801 5798 5795 5792 5789 5786
5825 5827 5829 5830 5832 5833 5834 5835 5835 5835 5834 5834 5835 5836 5834 5832 5831 5830 5829 5828 5827 5826 5825 5823 5822 5820 5819 5817 5816 5814 5812 5811 5809 5806 5804 5802 5799 5797 5794 5791 5788 5785 5782 5779
5818 5822 5823 5824 5826 5827 5828 5829 5829 5829 5828 5828 5829 5831 5829 5827 5825 5824 5823 5822 5821 5819 5818 5817 5816 5814 5813 5811 5810 5808 5806 5804 5802 5800 5798 5795 5793 5790 5787 5785 5782 5778 5775 5772
5811 5815 5817 5818 5820 5820 5822 5823 5823 5823 5823 5823 5823 5823 5825 5822 5820 5818 5817 5816 5814 5813 5812 5811 5809 5808 5806 5805 5803 5802 5800 5798 5796 5793 5791 5788 5786 5783 5780 5777 5774 5771 5767 5764
5806 5809 5810 5812 5814 5815 5816 5816 5816 5816 5816 5817 5816 5816 5819 5816 5814 5812 5811 5809 5808 5807 5805 5804 5803 5801 5800 5798 5797 5795 5793 5791 5789 5786 5784 5781 5778 5776 5773 5769 5766 5763 5759 5755
5799 5802 5804 5806 5807 5808 5809 5810 5810 5810 5809 5811 5811 5810 5811 5810 5808 5806 5804 5802 5801 5800 5799 5797 5796 5795 5793 5792 5790 5788 5786 5784 5782 5779 5776 5774 5771 5768 5764 5761 5758 5754 5750 5746
5792 5795 5797 5799 5801 5802 5803 5804 5803 5803 5803 5804 5804 5803 5804 5802 5800 5799 5797 5796 5794 5793 5792 5790 5789 5788 5786 5784 5783 5781 5779 5776 5774 5771 5769 5766 5763 5759 5756 5752 5749 5745 5741 5737
5785 5788 5791 5793 5794 5796 5796 5797 5798 5797 5797 5797 5796 5796 5798 5795 5793 5791 5790 5788 5787 5786 5784 5783 5782 5780 5779 5777 5775 5773 5771 5768 5766 5763 5760 5757 5754 5751 5747 5743 5740 5735 5731 5727
5778 5781 5784 5786 5787 5789 5790 5790 5791 5790 5788 5788 5789 5790 5791 5789 5786 5784 5783 5781 5780 5779 5777 5776 5774 5773 5771 5769 5767 5765 5763 5760 5758 5755 5752 5749 5745 5742 5738 5734 5730 5725 5721 5716
5770 5773 5776 5778 5780 5781 5783 5783 5783 5782 5781 5780 5781 5783 5784 5782 5779 5777 5775 5774 5772 5771 5770 5768 5766 5765 5763 5761 5759 5757 5754 5752 5749 5746 5743 5739 5736 5732 5728 5724 5720 5715 5710 5705
5763 5766 5768 5770 5772 5774 5775 5776 5775 5775 5775 5774 5773 5777 5777 5775 5772 5770 5768 5766 5764 5764 5762 5760 5758 5756 5754 5752 5750 5748 5745 5743 5740 5736 5733 5730 5726 5722 5718 5714 5709 5704 5699 5694
5755 5757 5759 5763 5765 5766 5767 5768 5768 5768 5767 5766 5766 5771 5769 5767 5764 5762 5760 5758 5757 5756 5754 5752 5750 5748 5746 5743 5741 5739 5736 5733 5730 5727 5723 5720 5716 5712 5707 5703 5698 5693 5687 5682
5747 5749 5752 5754 5758 5759 5759 5760 5760 5760 5760 5758 5758 5763 5760 5758 5755 5753 5751 5750 5748 5747 5745 5743 5741 5739 5737 5734 5732 5729 5726 5723 5720 5717 5713 5709 5705 5700 5696 5691 5686 5681 5675 5670
5739 5742 5745 5748 5749 5750 5752 5753 5752 5752 5751 5751 5751 5753 5753 5749 5746 5744 5742 5741 5740 5738 5736 5734 5732 5729 5727 5725 5722 5719 5716 5713 5710 5706 5702 5698 5694 5689 5684 5679 5674 5669 5663 5657
5731 5734 5737 5739 5740 5742 5743 5744 5744 5743 5743 5743 5743 5743 5744 5740 5737 5735 5734 5732 5731 5729 5727 5724 5722 5720 5717 5715 5712 5709 5706 5703 5699 5695 5691 5687 5682 5678 5673 5667 5662 5656 5650 5644
5723 5726 5728 5730 5731 5732 5733 5735 5736 5735 5735 5734 5733 5734 5734 5731 5728 5727 5725 5723 5722 5720 5717 5715 5712 5710 5707 5705 5702 5699 5695 5692 5688 5684 5680 5675 5671 5666 5660 5655 5649 5643 5637 5630
5715 5718 5720 5722 5722 5722 5725 5729 5727 5727 5727 5726 5724 5726 5724 5721 5719 5718 5716 5714 5712 5710 5708 5705 5703 5700 5697 5694 5691 5688 5684 5681 5677 5673 5668 5663 5659 5653 5648 5642 5636 5629 5623 5616
5707 5709 5711 5712 5714 5714 5721 5720 5719 5718 5718 5717 5716 5715 5713 5712 5710 5708 5706 5704 5702 5700 5697 5695 5692 5690 5687 5684 5680 5677 5673 5669 5665 5661 5656 5651 5646 5641 5635 5629 5622 5615 5608 5601
5699 5701 5702 5704 5704 5705 5710 5711 5710 5708 5709 5709 5706 5705 5704 5701 5700 5698 5696 5694 5692 5690 5687 5685 5682 5679 5676 5673 5670 5666 5662 5658 5654 5649 5644 5639 5633 5628 5621 5615 5608 5601 5593 5585
5690 5692 5694 5695 5695 5696 5702 5702 5700 5700 5700 5700 5697 5695 5694 5692 5690 5690 5687 5684 5682 5679 5677 5674 5672 5669 5666 5662 5659 5655 5651 5646 5642 5637 5632 5626 5620 5614 5607 5601 5593 5586 5578 5570
5681 5683 5685 5685 5685 5687 5692 5691 5690 5691 5691 5689 5687 5686 5684 5682 5681 5679 5676 5674 5672 5669 5667 5664 5661 5658 5655 5651 5647 5643 5639 5634 5629 5624 5619 5613 5606 5600 5593 5586 5578 5570 5562 5554
5672 5674 5676 5676 5677 5682 5682 5681 5681 5681 5680 5678 5677 5676 5674 5673 5671 5669 5666 5664 5661 5659 5656 5653 5650 5647 5643 5640 5636 5631 5627 5622 5617 5611 5605 5599 5592 5585 5578 5571 5563 5554 5545 5537
5663 5666 5667 5669 5672 5672 5672 5671 5670 5670 5670 5668 5667 5666 5664 5662 5660 5658 5656 5654 5651 5648 5646 5642 5639 5636 5632 5628 5624 5619 5614 5609 5604 5598 5591 5585 5578 5571 5563 5555 5547 5538 5528 5519
5654 5656 5657 5659 5661 5662 5661 5660 5660 5660 5659 5658 5656 5655 5654 5652 5650 5648 5646 5643 5641 5638 5635 5631 5628 5624 5620 5616 5611 5606 5601 5596 5590 5584 5578 5571 5563 5556 5548 5539 5530 5521 5511 5501
5645 5646 5647 5649 5651 5651 5651 5650 5650 5649 5648 5647 5646 5644 5643 5641 5639 5637 5635 5632 5629 5626 5623 5620 5616 5612 5608 5603 5598 5593 5588 5582 5577 5570 5563 5556 5548 5540 5532 5523 5514 5504 5494 5482
5636 5637 5638 5640 5641 5640 5641 5641 5640 5639 5638 5636 5635 5634 5632 5630 5628 5626 5623 5621 5618 5615 5611 5608 5604 5599 5595 5590 5585 5580 5575 5569 5562 5556 5548 5541 5533 5524 5516 5507 5498 5487 5476 5465